• In Deutschland
  • Länderverzeichnis
  • Für 7 Tage
  • Wassertemperatur
  • Satellitenkarten
  • Wetterkarte
  • Widgets
  • user-avatar
    Anmelden

    Stündliche Wetter Hobart

    Heute, 26 März, Sonntag

    Zeit Temperatur Niederschläge Wind Luftdruck Luftfeuchtigkeit
    00:00 +12°C° 0 mm 1 m/S 746 mmHg 94%
    01:00 +12°C° 0 mm 1 m/S 746 mmHg 95%
    02:00 +12°C° 0 mm 1 m/S 746 mmHg 95%
    03:00 +11°C° 0 mm 1 m/S 746 mmHg 95%
    04:00 +11°C° 0 mm 1 m/S 747 mmHg 95%
    05:00 +12°C° 0 mm 1 m/S 747 mmHg 95%
    06:00 +12°C° 0 mm 1 m/S 747 mmHg 95%
    07:00 +13°C° 0 mm 1 m/S 747 mmHg 95%
    08:00 +16°C° 0 mm 1 m/S 747 mmHg 84%
    09:00 +18°C° 0 mm 0 m/S 748 mmHg 73%
    10:00 +22°C° 0 mm 0 m/S 748 mmHg 62%
    11:00 +25°C° 0 mm 1 m/S 748 mmHg 57%
    12:00 +26°C° 0 mm 1 m/S 748 mmHg 53%
    13:00 +27°C° 0 mm 2 m/S 747 mmHg 49%
    14:00 +26°C° 0 mm 2 m/S 747 mmHg 50%
    15:00 +26°C° 0 mm 3 m/S 747 mmHg 52%
    16:00 +25°C° 0 mm 3 m/S 746 mmHg 53%
    17:00 +22°C° 0 mm 3 m/S 746 mmHg 65%
    18:00 +19°C° 0 mm 3 m/S 746 mmHg 77%
    19:00 +16°C° 0 mm 3 m/S 746 mmHg 90%
    20:00 +16°C° 0 mm 3 m/S 746 mmHg 92%
    21:00 +14°C° 0 mm 3 m/S 746 mmHg 94%
    22:00 +14°C° 0 mm 3 m/S 746 mmHg 96%
    23:00 +14°C° 0 mm 3 m/S 745 mmHg 96%

    Morgen, 27 März, Montag

    Zeit Temperatur Niederschläge Wind Luftdruck Luftfeuchtigkeit
    00:00 +13°C° 0 mm 4 m/S 745 mmHg 95%
    01:00 +13°C° 0 mm 4 m/S 744 mmHg 95%
    02:00 +14°C° 0 mm 4 m/S 743 mmHg 93%
    03:00 +14°C° 0 mm 5 m/S 742 mmHg 91%
    04:00 +14°C° 0 mm 5 m/S 741 mmHg 89%
    05:00 +15°C° 0 mm 5 m/S 741 mmHg 87%
    06:00 +16°C° 0 mm 5 m/S 740 mmHg 85%
    07:00 +17°C° 0 mm 6 m/S 739 mmHg 83%
    08:00 +21°C° 0,1 mm 7 m/S 739 mmHg 73%
    09:00 +24°C° 0,1 mm 7 m/S 738 mmHg 63%
    10:00 +27°C° 0,1 mm 8 m/S 737 mmHg 52%
    11:00 +28°C° 0 mm 9 m/S 736 mmHg 50%
    12:00 +29°C° 0 mm 9 m/S 736 mmHg 48%
    13:00 +31°C° 0 mm 10 m/S 735 mmHg 46%
    14:00 +24°C° 0,4 mm 10 m/S 736 mmHg 56%
    15:00 +19°C° 0,4 mm 10 m/S 736 mmHg 67%
    16:00 +13°C° 0,4 mm 9 m/S 737 mmHg 77%
    17:00 +13°C° 0 mm 9 m/S 738 mmHg 75%
    18:00 +13°C° 0 mm 9 m/S 738 mmHg 73%
    19:00 +12°C° 0 mm 9 m/S 739 mmHg 71%
    20:00 +12°C° 0 mm 8 m/S 740 mmHg 71%
    21:00 +12°C° 0 mm 8 m/S 740 mmHg 70%
    22:00 +14°C° 0 mm 7 m/S 741 mmHg 70%
    23:00 +12°C° 0 mm 7 m/S 741 mmHg 71%

    übermorgen, 28 März, Dienstag

    Zeit Temperatur Niederschläge Wind Luftdruck Luftfeuchtigkeit
    00:00 +13°C° 0 mm 6 m/S 741 mmHg 73%
    01:00 +13°C° 0 mm 6 m/S 741 mmHg 74%
    02:00 +13°C° 0 mm 6 m/S 741 mmHg 74%
    03:00 +13°C° 0 mm 5 m/S 741 mmHg 74%
    04:00 +13°C° 0 mm 5 m/S 742 mmHg 75%
    05:00 +13°C° 0 mm 5 m/S 742 mmHg 75%
    06:00 +13°C° 0 mm 5 m/S 742 mmHg 76%
    07:00 +13°C° 0 mm 5 m/S 743 mmHg 77%
    08:00 +13°C° 0 mm 5 m/S 743 mmHg 73%
    09:00 +14°C° 0 mm 6 m/S 743 mmHg 69%
    10:00 +15°C° 0 mm 6 m/S 744 mmHg 66%
    11:00 +16°C° 0 mm 6 m/S 744 mmHg 63%
    12:00 +17°C° 0 mm 6 m/S 744 mmHg 60%
    13:00 +17°C° 0 mm 6 m/S 743 mmHg 58%
    14:00 +17°C° 0 mm 6 m/S 743 mmHg 59%
    15:00 +17°C° 0 mm 6 m/S 743 mmHg 59%
    16:00 +17°C° 0 mm 6 m/S 743 mmHg 60%
    17:00 +16°C° 0 mm 5 m/S 743 mmHg 66%
    18:00 +15°C° 0 mm 5 m/S 744 mmHg 71%
    19:00 +14°C° 0 mm 4 m/S 744 mmHg 76%
    20:00 +13°C° 0 mm 4 m/S 744 mmHg 79%
    21:00 +13°C° 0 mm 4 m/S 744 mmHg 82%
    22:00 +12°C° 0 mm 4 m/S 745 mmHg 85%
    23:00 +12°C° 0 mm 4 m/S 744 mmHg 86%

    29 März, Mittwoch

    Zeit Temperatur Niederschläge Wind Luftdruck Luftfeuchtigkeit
    00:00 +12°C° 0 mm 4 m/S 744 mmHg 86%
    01:00 +12°C° 0 mm 4 m/S 744 mmHg 86%
    02:00 +12°C° 0 mm 4 m/S 744 mmHg 87%
    03:00 +12°C° 0 mm 4 m/S 743 mmHg 89%
    04:00 +12°C° 0 mm 4 m/S 743 mmHg 90%
    05:00 +12°C° 0 mm 4 m/S 743 mmHg 89%
    06:00 +12°C° 0 mm 4 m/S 743 mmHg 87%
    07:00 +12°C° 0 mm 5 m/S 743 mmHg 86%
    08:00 +14°C° 0 mm 5 m/S 743 mmHg 79%
    09:00 +16°C° 0 mm 5 m/S 743 mmHg 71%
    10:00 +17°C° 0 mm 6 m/S 742 mmHg 63%
    11:00 +19°C° 0 mm 6 m/S 742 mmHg 60%
    12:00 +20°C° 0 mm 6 m/S 741 mmHg 56%
    13:00 +21°C° 0 mm 6 m/S 740 mmHg 52%
    14:00 +21°C° 0 mm 6 m/S 740 mmHg 54%
    15:00 +20°C° 0 mm 6 m/S 739 mmHg 55%
    16:00 +20°C° 0 mm 6 m/S 739 mmHg 57%
    17:00 +19°C° 0 mm 5 m/S 739 mmHg 62%
    18:00 +16°C° 0 mm 5 m/S 739 mmHg 67%
    19:00 +15°C° 0 mm 4 m/S 739 mmHg 73%
    20:00 +14°C° 0,3 mm 4 m/S 740 mmHg 78%
    21:00 +13°C° 0,3 mm 5 m/S 740 mmHg 83%
    22:00 +12°C° 0,3 mm 5 m/S 741 mmHg 89%
    23:00 +12°C° 0,5 mm 4 m/S 741 mmHg 90%

    30 März, Donnerstag

    Zeit Temperatur Niederschläge Wind Luftdruck Luftfeuchtigkeit
    00:00 +11°C° 0,5 mm 3 m/S 741 mmHg 91%
    01:00 +10°C° 0,5 mm 3 m/S 741 mmHg 92%
    02:00 +10°C° 0,6 mm 3 m/S 742 mmHg 92%
    03:00 +10°C° 0,6 mm 3 m/S 742 mmHg 93%
    04:00 +10°C° 0,6 mm 3 m/S 742 mmHg 94%
    05:00 +9°C° 0,3 mm 3 m/S 743 mmHg 94%
    06:00 +9°C° 0,3 mm 3 m/S 743 mmHg 94%
    07:00 +9°C° 0,3 mm 3 m/S 744 mmHg 94%
    08:00 +10°C° 0 mm 4 m/S 744 mmHg 86%
    09:00 +11°C° 0 mm 4 m/S 745 mmHg 79%
    10:00 +12°C° 0 mm 5 m/S 745 mmHg 72%
    11:00 +13°C° 0,1 mm 5 m/S 745 mmHg 63%
    12:00 +14°C° 0,1 mm 6 m/S 745 mmHg 54%
    13:00 +14°C° 0,1 mm 7 m/S 745 mmHg 44%
    14:00 +14°C° 0 mm 7 m/S 746 mmHg 46%
    15:00 +14°C° 0 mm 7 m/S 746 mmHg 48%
    16:00 +12°C° 0 mm 7 m/S 746 mmHg 50%
    17:00 +10°C° 0 mm 6 m/S 746 mmHg 58%
    18:00 +9°C° 0 mm 6 m/S 747 mmHg 67%
    19:00 +7°C° 0 mm 5 m/S 748 mmHg 75%
    20:00 +7°C° 0 mm 5 m/S 748 mmHg 77%
    21:00 +7°C° 0 mm 5 m/S 749 mmHg 79%
    22:00 +6°C° 0 mm 5 m/S 749 mmHg 82%
    23:00 +6°C° 0 mm 5 m/S 749 mmHg 82%

    31 März, Freitag

    Zeit Temperatur Niederschläge Wind Luftdruck Luftfeuchtigkeit
    00:00 +6°C° 0 mm 5 m/S 749 mmHg 82%
    01:00 +6°C° 0 mm 5 m/S 749 mmHg 83%
    02:00 +6°C° 0 mm 5 m/S 749 mmHg 83%
    03:00 +6°C° 0 mm 5 m/S 749 mmHg 84%
    04:00 +6°C° 0 mm 4 m/S 749 mmHg 84%
    05:00 +6°C° 0 mm 4 m/S 749 mmHg 84%
    06:00 +6°C° 0 mm 4 m/S 749 mmHg 85%
    07:00 +6°C° 0 mm 4 m/S 749 mmHg 85%
    08:00 +8°C° 0 mm 5 m/S 749 mmHg 79%
    09:00 +9°C° 0 mm 6 m/S 749 mmHg 72%
    10:00 +11°C° 0 mm 6 m/S 749 mmHg 66%
    11:00 +12°C° 0 mm 7 m/S 749 mmHg 65%
    12:00 +14°C° 0 mm 7 m/S 749 mmHg 64%
    13:00 +14°C° 0 mm 7 m/S 748 mmHg 63%
    14:00 +14°C° 0,1 mm 7 m/S 748 mmHg 65%
    15:00 +14°C° 0,1 mm 7 m/S 748 mmHg 68%
    16:00 +14°C° 0,1 mm 7 m/S 748 mmHg 70%
    17:00 +13°C° 0,1 mm 6 m/S 749 mmHg 76%
    18:00 +12°C° 0,1 mm 5 m/S 750 mmHg 82%
    19:00 +11°C° 0,1 mm 4 m/S 750 mmHg 88%
    20:00 +11°C° 0 mm 4 m/S 750 mmHg 89%
    21:00 +10°C° 0 mm 4 m/S 751 mmHg 91%
    22:00 +8°C° 0 mm 4 m/S 751 mmHg 92%
    23:00 +8°C° 0 mm 4 m/S 751 mmHg 91%
    Mehr zeigen